EST,Max TemperatureF,Mean TemperatureF,Min TemperatureF,Max Dew PointF,MeanDew PointF,Min DewpointF,Max Humidity, Mean Humidity, Min Humidity, Max Sea Level PressureIn, Mean Sea Level PressureIn, Min Sea Level PressureIn, Max VisibilityMiles, Mean VisibilityMiles, Min VisibilityMiles, Max Wind SpeedMPH, Mean Wind SpeedMPH, Max Gust SpeedMPH,PrecipitationIn, CloudCover, Events, WindDirDegrees
2012-11-1,57,46,34,31,25,16,70,45,20,29.98,29.92,29.89,10,10,10,16,6,20,0.00,4,,252
2012-11-2,56,48,39,36,32,29,73,56,38,30.10,29.99,29.86,10,10,10,12,4,17,0.00,2,,342
2012-11-3,48,41,34,41,37,30,89,83,76,30.17,30.11,30.06,10,10,8,13,4,18,0.20,6,Rain-Thunderstorm,39
2012-11-4,52,43,34,39,34,30,100,74,48,30.20,30.16,30.12,10,10,8,12,3,15,0.00,0,,353
2012-11-5,50,39,27,34,31,26,100,77,54,30.20,30.15,30.08,10,9,0,10,3,14,0.00,2,Fog,42
2012-11-6,54,44,33,41,32,29,89,64,38,30.07,30.00,29.94,10,10,5,10,2,13,0.03,4,Rain,359
2012-11-7,50,44,37,41,40,35,96,79,61,30.15,29.99,29.90,10,6,2,10,3,13,0.04,7,Rain,342
2012-11-8,54,42,30,38,34,28,100,73,46,30.28,30.22,30.16,10,6,1,7,0,9,0.00,0,,311
2012-11-9,63,48,32,40,37,30,96,68,39,30.28,30.20,30.14,10,8,3,12,4,16,0.00,0,,161
2012-11-10,74,58,42,47,42,37,82,59,35,30.24,30.18,30.12,10,10,10,15,5,21,0.00,0,,165
2012-11-11,70,61,52,49,41,38,61,47,32,30.25,30.16,30.08,10,10,10,22,9,30,0.00,0,,167
2012-11-12,65,49,32,57,42,24,100,75,49,30.46,30.19,30.01,10,8,1,24,8,31,0.53,6,Rain,259
2012-11-13,47,37,27,29,24,20,92,63,34,30.54,30.50,30.46,10,10,9,10,3,13,0.00,0,,11
2012-11-14,47,37,27,29,26,24,78,64,49,30.53,30.46,30.39,10,10,10,12,4,16,0.00,0,,51
2012-11-15,50,39,27,31,28,25,92,67,42,30.41,30.37,30.33,10,9,5,8,1,9,0.00,0,,333
2012-11-16,54,41,27,35,31,28,100,69,38,30.48,30.43,30.38,10,7,0,9,2,12,0.00,0,Fog,5
2012-11-17,59,45,30,35,31,29,100,68,36,30.54,30.48,30.44,10,8,3,10,3,14,0.00,0,,40
2012-11-18,63,46,29,33,31,27,92,60,27,30.46,30.41,30.35,10,10,7,7,1,8,0.00,0,,315
2012-11-19,63,48,32,37,33,29,89,58,27,30.36,30.30,30.20,10,10,10,3,0,5,0.00,0,,-1
2012-11-20,64,52,40,44,39,36,82,61,40,30.19,30.13,30.06,10,10,10,7,1,9,0.00,6,,249
2012-11-21,64,54,43,43,41,39,83,62,40,30.25,30.20,30.13,10,8,5,8,2,10,0.00,3,,352
2012-11-22,67,51,35,43,40,34,100,71,42,30.23,30.16,30.06,10,8,3,14,3,20,0.00,0,,186
2012-11-23,59,46,32,49,33,19,66,54,42,30.25,30.11,30.00,10,10,9,25,13,32,T,4,Rain,278
2012-11-24,36,31,25,22,19,17,75,64,52,30.31,30.25,30.17,10,10,8,14,5,16,0.00,1,,304
2012-11-25,54,41,28,27,23,21,75,54,32,30.15,30.05,29.93,10,10,10,17,5,24,0.00,0,,200
2012-11-26,50,40,29,41,31,26,96,71,46,30.24,30.16,30.08,10,10,7,12,2,15,0.05,5,Rain,359
2012-11-27,45,38,30,36,31,25,96,75,53,30.38,30.31,30.23,10,9,6,12,5,17,0.03,4,Rain,2
2012-11-28,46,36,25,27,25,23,92,67,41,30.49,30.42,30.36,10,8,4,8,1,10,0.00,0,,274
2012-11-29,52,39,26,30,27,22,92,67,41,30.43,30.35,30.26,10,9,6,9,2,13,0.00,0,,179
2012-11-30,59,48,37,40,35,28,76,64,51,30.28,30.23,30.17,10,10,9,15,5,18,0.00,1,,185